| time (UTC) | temp F | wind direction | speed MPH | gust MPH | rain 1hr in | rain 24hr in | rain mn in | humidity % | barometer mb |
| 20260905123200 | 69 | 144 | 0.0 | 3.0 | 0.00 | 0.00 | 0.00 | 73 | 1018.3 |
| 20260905122540 | 69 | 149 | 0.0 | 3.0 | 0.00 | 0.00 | 0.00 | 73 | 1018.3 |
| 20260905121917 | 69 | 142 | 3.0 | 4.0 | 0.00 | 0.00 | 0.00 | 72 | 1018.0 |
| 20260905121400 | 69 | 128 | 3.0 | 4.0 | 0.00 | 0.00 | 0.00 | 72 | 1018.0 |
| 20260905120717 | 70 | 138 | 2.0 | 4.0 | 0.00 | 0.00 | 0.00 | 71 | 1018.0 |
| 20260905120116 | 70 | 135 | 2.0 | 4.0 | 0.00 | 0.00 | 0.00 | 71 | 1018.3 |
| 20260905115558 | 70 | 146 | 4.0 | 4.0 | 0.00 | 0.00 | 0.00 | 70 | 1018.3 |
| 20260905115058 | 70 | 147 | 3.0 | 4.0 | 0.00 | 0.00 | 0.00 | 70 | 1018.0 |
| 20260905114505 | 70 | 143 | 0.0 | 4.0 | 0.00 | 0.00 | 0.00 | 70 | 1018.3 |
| 20260905113924 | 70 | 148 | 4.0 | 4.0 | 0.00 | 0.00 | 0.00 | 70 | 1018.3 |
| 20260905113533 | 71 | 150 | 1.0 | 3.0 | 0.00 | 0.00 | 0.00 | 69 | 1018.0 |
| 20260905112716 | 71 | 157 | 1.0 | 3.0 | 0.00 | 0.00 | 0.00 | 69 | 1018.3 |
| 20260905112100 | 71 | 144 | 2.0 | 4.0 | 0.00 | 0.00 | 0.00 | 68 | 1018.3 |
| 20260905111504 | 71 | 136 | 4.0 | 4.0 | 0.00 | 0.00 | 0.00 | 67 | 1018.3 |
| 20260905111105 | 71 | 148 | 1.0 | 6.0 | 0.00 | 0.00 | 0.00 | 67 | 1018.3 |
| 20260905110339 | 72 | 142 | 2.0 | 6.0 | 0.00 | 0.00 | 0.00 | 66 | 1018.0 |
| 20260905105732 | 72 | 140 | 0.0 | 0.0 | 0.00 | 0.00 | 0.00 | 66 | 1018.3 |
| 20260905105112 | 72 | 138 | 0.0 | 2.0 | 0.00 | 0.00 | 0.00 | 65 | 1018.3 |
| 20260905104552 | 72 | 136 | 1.0 | 3.0 | 0.00 | 0.00 | 0.00 | 64 | 1018.3 |
| 20260905103917 | 72 | 136 | 0.0 | 3.0 | 0.00 | 0.00 | 0.00 | 64 | 1018.3 |
| 20260905103304 | 73 | 135 | 1.0 | 3.0 | 0.00 | 0.00 | 0.00 | 64 | 1018.3 |
| 20260905102846 | 73 | 130 | 0.0 | 2.0 | 0.00 | 0.00 | 0.00 | 63 | 1018.3 |
| 20260905102011 | 73 | 136 | 0.0 | 2.0 | 0.00 | 0.00 | 0.00 | 63 | 1018.0 |
| 20260905101411 | 73 | 136 | 0.0 | 0.0 | 0.00 | 0.00 | 0.00 | 63 | 1018.3 |
| 20260905100717 | 73 | 146 | 0.0 | 0.0 | 0.00 | 0.00 | 0.00 | 62 | 1018.3 |
| 20260905100059 | 73 | 146 | 0.0 | 0.0 | 0.00 | 0.00 | 0.00 | 62 | 1018.0 |
| 20260905095500 | 74 | 146 | 0.0 | 0.0 | 0.00 | 0.00 | 0.00 | 61 | 1018.0 |
| 20260905094926 | 74 | 146 | 0.0 | 0.0 | 0.00 | 0.00 | 0.00 | 61 | 1018.3 |
| 20260905094252 | 74 | 146 | 0.0 | 0.0 | 0.00 | 0.00 | 0.00 | 61 | 1018.3 |
| 20260905093753 | 74 | 145 | 0.0 | 0.0 | 0.00 | 0.00 | 0.00 | 60 | 1018.3 |
| 20260905093122 | 74 | 144 | 0.0 | 0.0 | 0.00 | 0.00 | 0.00 | 60 | 1017.7 |
| 20260905092447 | 74 | 146 | 0.0 | 0.0 | 0.00 | 0.00 | 0.00 | 60 | 1018.3 |
| 20260905091752 | 74 | 145 | 0.0 | 0.0 | 0.00 | 0.00 | 0.00 | 59 | 1018.3 |
| 20260905091116 | 74 | 148 | 0.0 | 0.0 | 0.00 | 0.00 | 0.00 | 59 | 1018.3 |
| 20260905090445 | 74 | 148 | 0.0 | 1.0 | 0.00 | 0.00 | 0.00 | 59 | 1018.3 |
| 20260905085824 | 74 | 148 | 0.0 | 0.0 | 0.00 | 0.00 | 0.00 | 59 | 1018.3 |
| 20260905085523 | 74 | 148 | 0.0 | 0.0 | 0.00 | 0.00 | 0.00 | 58 | 1018.3 |
| 20260905084558 | 74 | 149 | 0.0 | 1.0 | 0.00 | 0.00 | 0.00 | 58 | 1018.3 |
| 20260905084433 | 74 | 149 | 0.0 | 0.0 | 0.00 | 0.00 | 0.00 | 58 | 1018.0 |
| 20260905083315 | 75 | 154 | 0.0 | 0.0 | 0.00 | 0.00 | 0.00 | 58 | 1018.3 |
| 20260905083202 | 75 | 147 | 0.0 | 0.0 | 0.00 | 0.00 | 0.00 | 58 | 1018.3 |
| 20260905082118 | 75 | 139 | 0.0 | 0.0 | 0.00 | 0.00 | 0.00 | 57 | 1018.0 |
| 20260905081841 | 75 | 144 | 0.0 | 0.0 | 0.00 | 0.00 | 0.00 | 57 | 1018.3 |
| 20260905081110 | 75 | 140 | 0.0 | 0.0 | 0.00 | 0.00 | 0.00 | 57 | 1018.0 |
| 20260905080514 | 75 | 129 | 0.0 | 0.0 | 0.00 | 0.00 | 0.00 | 57 | 1018.0 |
| 20260905075909 | 76 | 148 | 0.0 | 0.0 | 0.00 | 0.00 | 0.00 | 56 | 1018.3 |
| 20260905075359 | 76 | 155 | 0.0 | 0.0 | 0.00 | 0.00 | 0.00 | 56 | 1018.3 |
| 20260905074800 | 76 | 148 | 0.0 | 0.0 | 0.00 | 0.00 | 0.00 | 55 | 1018.0 |
| 20260905074119 | 76 | 142 | 0.0 | 3.0 | 0.00 | 0.00 | 0.00 | 55 | 1018.3 |
| 20260905073419 | 77 | 136 | 0.0 | 7.0 | 0.00 | 0.00 | 0.00 | 54 | 1018.3 |
| 20260905073016 | 77 | 141 | 5.0 | 7.0 | 0.00 | 0.00 | 0.00 | 54 | 1018.3 |
| 20260905072116 | 77 | 176 | 0.0 | 6.0 | 0.00 | 0.00 | 0.00 | 54 | 1018.3 |
| 20260905071515 | 77 | 138 | 2.0 | 6.0 | 0.00 | 0.00 | 0.00 | 53 | 1018.3 |
| 20260905070912 | 77 | 140 | 0.0 | 6.0 | 0.00 | 0.00 | 0.00 | 53 | 1018.3 |
| 20260905070358 | 78 | 140 | 1.0 | 2.0 | 0.00 | 0.00 | 0.00 | 52 | 1018.7 |
| 20260905065511 | 78 | 133 | 0.0 | 2.0 | 0.00 | 0.00 | 0.00 | 52 | 1018.3 |
| 20260905064857 | 78 | 121 | 0.0 | 4.0 | 0.00 | 0.00 | 0.00 | 51 | 1018.3 |
| 20260905064220 | 78 | 136 | 0.0 | 4.0 | 0.00 | 0.00 | 0.00 | 50 | 1018.3 |
| 20260905063821 | 78 | 151 | 0.0 | 1.0 | 0.00 | 0.00 | 0.00 | 50 | 1018.3 |
| 20260905062946 | 78 | 135 | 0.0 | 0.0 | 0.00 | 0.00 | 0.00 | 49 | 1018.7 |
| 20260905062359 | 78 | 179 | 0.0 | 0.0 | 0.00 | 0.00 | 0.00 | 47 | 1018.3 |
| 20260905061759 | 80 | 140 | 0.0 | 2.0 | 0.00 | 0.00 | 0.00 | 45 | 1018.3 |
| 20260905061145 | 80 | 147 | 0.0 | 1.0 | 0.00 | 0.00 | 0.00 | 45 | 1018.3 |
| 20260905060646 | 80 | 135 | 0.0 | 0.0 | 0.00 | 0.00 | 0.00 | 45 | 1018.3 |
| 20260905060231 | 80 | 135 | 0.0 | 0.0 | 0.00 | 0.00 | 0.00 | 45 | 1018.0 |
| 20260905055637 | 80 | 129 | 0.0 | 0.0 | 0.00 | 0.00 | 0.00 | 45 | 1018.3 |
| 20260905054811 | 80 | 138 | 0.0 | 0.0 | 0.00 | 0.00 | 0.00 | 45 | 1018.3 |
| 20260905054120 | 80 | 91 | 0.0 | 0.0 | 0.00 | 0.00 | 0.00 | 46 | 1018.0 |
| 20260905053511 | 80 | 90 | 0.0 | 0.0 | 0.00 | 0.00 | 0.00 | 46 | 1018.0 |
| 20260905052956 | 80 | 100 | 0.0 | 0.0 | 0.00 | 0.00 | 0.00 | 45 | 1018.0 |
| 20260905052601 | 80 | 51 | 0.0 | 0.0 | 0.00 | 0.00 | 0.00 | 45 | 1018.0 |
| 20260905051754 | 80 | 48 | 0.0 | 0.0 | 0.00 | 0.00 | 0.00 | 45 | 1018.0 |
| 20260905051217 | 80 | 54 | 0.0 | 2.0 | 0.00 | 0.00 | 0.00 | 45 | 1018.3 |
| 20260905050620 | 80 | 118 | 1.0 | 2.0 | 0.00 | 0.00 | 0.00 | 45 | 1018.3 |
| 20260905050020 | 80 | 288 | 0.0 | 0.0 | 0.00 | 0.00 | 0.00 | 47 | 1018.0 |
| 20260905045404 | 80 | 288 | 0.0 | 0.0 | 0.00 | 0.00 | 0.00 | 47 | 1017.7 |
| 20260905044747 | 79 | 288 | 0.0 | 0.0 | 0.00 | 0.00 | 0.00 | 47 | 1017.7 |
| 20260905044112 | 80 | 292 | 0.0 | 0.0 | 0.00 | 0.00 | 0.00 | 47 | 1018.0 |
| 20260905043607 | 80 | 292 | 0.0 | 0.0 | 0.00 | 0.00 | 0.00 | 47 | 1017.7 |
| 20260905043006 | 80 | 292 | 0.0 | 0.0 | 0.00 | 0.00 | 0.00 | 47 | 1017.7 |
| 20260905042503 | 80 | 292 | 0.0 | 0.0 | 0.00 | 0.00 | 0.00 | 47 | 1017.7 |
| 20260905042042 | 80 | 291 | 0.0 | 0.0 | 0.00 | 0.00 | 0.00 | 47 | 1017.7 |
| 20260905041528 | 80 | 275 | 0.0 | 0.0 | 0.00 | 0.00 | 0.00 | 46 | 1017.7 |
| 20260905040659 | 80 | 272 | 0.0 | 0.0 | 0.00 | 0.00 | 0.00 | 47 | 1017.7 |
| 20260905040301 | 80 | 272 | 0.0 | 0.0 | 0.00 | 0.00 | 0.00 | 47 | 1017.3 |
| 20260905035358 | 80 | 271 | 0.0 | 1.0 | 0.00 | 0.00 | 0.00 | 46 | 1018.0 |
| 20260905034425 | 80 | 268 | 0.0 | 0.0 | 0.00 | 0.00 | 0.00 | 46 | 1017.7 |
| 20260905033711 | 81 | 294 | 0.0 | 0.0 | 0.00 | 0.00 | 0.00 | 46 | 1017.7 |
| 20260905033110 | 81 | 282 | 0.0 | 0.0 | 0.00 | 0.00 | 0.00 | 45 | 1018.0 |
| 20260905032418 | 81 | 281 | 0.0 | 0.0 | 0.00 | 0.00 | 0.00 | 45 | 1017.7 |
| 20260905031733 | 81 | 268 | 0.0 | 0.0 | 0.00 | 0.00 | 0.00 | 44 | 1017.7 |
| 20260905030838 | 82 | 268 | 0.0 | 0.0 | 0.00 | 0.00 | 0.00 | 44 | 1017.7 |
| 20260905030304 | 82 | 271 | 0.0 | 0.0 | 0.00 | 0.00 | 0.00 | 44 | 1017.3 |
| 20260905025708 | 82 | 283 | 0.0 | 0.0 | 0.00 | 0.00 | 0.00 | 44 | 1017.3 |
| 20260905025047 | 82 | 283 | 0.0 | 0.0 | 0.00 | 0.00 | 0.00 | 44 | 1017.3 |
| 20260905024359 | 83 | 269 | 0.0 | 0.0 | 0.00 | 0.00 | 0.00 | 44 | 1017.3 |
| 20260905023759 | 83 | 266 | 0.0 | 0.0 | 0.00 | 0.00 | 0.00 | 43 | 1017.3 |
| 20260905023549 | 83 | 253 | 0.0 | 0.0 | 0.00 | 0.00 | 0.00 | 42 | 1017.3 |
| 20260905022504 | 84 | 239 | 0.0 | 0.0 | 0.00 | 0.00 | 0.00 | 41 | 1017.7 |
| 20260905022055 | 84 | 242 | 0.0 | 0.0 | 0.00 | 0.00 | 0.00 | 39 | 1017.3 |
| 20260905021310 | 85 | 242 | 0.0 | 0.0 | 0.00 | 0.00 | 0.00 | 37 | 1017.3 |
| 20260905020923 | 87 | 186 | 0.0 | 0.0 | 0.00 | 0.00 | 0.00 | 34 | 1017.0 |
| 20260905020115 | 87 | 177 | 0.0 | 0.0 | 0.00 | 0.00 | 0.00 | 32 | 1017.0 |
| 20260905015510 | 88 | 172 | 0.0 | 0.0 | 0.00 | 0.00 | 0.00 | 31 | 1017.0 |
| 20260905015008 | 87 | 189 | 0.0 | 0.0 | 0.00 | 0.00 | 0.00 | 30 | 1017.0 |
| 20260905014414 | 87 | 193 | 0.0 | 0.0 | 0.00 | 0.00 | 0.00 | 30 | 1017.0 |
| 20260905013816 | 88 | 193 | 0.0 | 0.0 | 0.00 | 0.00 | 0.00 | 30 | 1016.7 |
| 20260905013312 | 88 | 193 | 0.0 | 1.0 | 0.00 | 0.00 | 0.00 | 30 | 1016.7 |
| 20260905012806 | 88 | 195 | 0.0 | 1.0 | 0.00 | 0.00 | 0.00 | 29 | 1016.7 |
| 20260905012151 | 89 | 194 | 0.0 | 1.0 | 0.00 | 0.00 | 0.00 | 30 | 1016.7 |
| 20260905011310 | 89 | 192 | 0.0 | 0.0 | 0.00 | 0.00 | 0.00 | 30 | 1016.7 |
| 20260905010648 | 89 | 193 | 0.0 | 0.0 | 0.00 | 0.00 | 0.00 | 30 | 1016.7 |
| 20260905010034 | 90 | 188 | 0.0 | 1.0 | 0.00 | 0.00 | 0.00 | 29 | 1016.7 |
| 20260905005521 | 91 | 191 | 0.0 | 1.0 | 0.00 | 0.00 | 0.00 | 26 | 1016.7 |
| 20260905004850 | 91 | 147 | 0.0 | 0.0 | 0.00 | 0.00 | 0.00 | 25 | 1016.7 |
| 20260905004222 | 91 | 145 | 0.0 | 0.0 | 0.00 | 0.00 | 0.00 | 25 | 1016.7 |
| 20260905003604 | 91 | 136 | 0.0 | 0.0 | 0.00 | 0.00 | 0.00 | 25 | 1016.3 |
| 20260905003248 | 91 | 130 | 0.0 | 0.0 | 0.00 | 0.00 | 0.00 | 26 | 1016.7 |
| 20260905002358 | 92 | 146 | 0.0 | 0.0 | 0.00 | 0.00 | 0.00 | 27 | 1016.3 |
| 20260905001715 | 92 | 143 | 0.0 | 0.0 | 0.00 | 0.00 | 0.00 | 27 | 1016.7 |
| 20260905001054 | 0 | 0.0 | 0.0 | 0.00 | 0.00 | 0.00 | 1016.0 | ||
| 20260904235816 | 91 | 145 | 0.0 | 0.0 | 0.00 | 0.00 | 0.00 | 27 | 1016.3 |
| 20260904235145 | 91 | 134 | 0.0 | 1.0 | 0.00 | 0.00 | 0.00 | 28 | 1016.3 |
| 20260904234529 | 91 | 142 | 0.0 | 1.0 | 0.00 | 0.00 | 0.00 | 28 | 1016.7 |
| 20260904233926 | 91 | 129 | 0.0 | 4.0 | 0.00 | 0.00 | 0.00 | 28 | 1016.3 |
| 20260904233427 | 91 | 134 | 3.0 | 4.0 | 0.00 | 0.00 | 0.00 | 28 | 1016.3 |
| 20260904232908 | 91 | 152 | 2.0 | 3.0 | 0.00 | 0.00 | 0.00 | 28 | 1016.3 |
| 20260904232306 | 92 | 111 | 1.0 | 4.0 | 0.00 | 0.00 | 0.00 | 28 | 1016.0 |
| 20260904231705 | 92 | 130 | 0.0 | 7.0 | 0.00 | 0.00 | 0.00 | 27 | 1016.0 |
| 20260904231059 | 93 | 189 | 0.0 | 2.0 | 0.00 | 0.00 | 0.00 | 26 | 1016.0 |
| 20260904230416 | 93 | 138 | 0.0 | 4.0 | 0.00 | 0.00 | 0.00 | 26 | 1016.3 |
| 20260904230125 | 94 | 150 | 1.0 | 4.0 | 0.00 | 0.00 | 0.00 | 25 | 1016.0 |
| 20260904225319 | 94 | 135 | 0.0 | 2.0 | 0.00 | 0.00 | 0.00 | 25 | 1016.3 |
| 20260904224813 | 94 | 148 | 0.0 | 2.0 | 0.00 | 0.00 | 0.00 | 25 | 1016.0 |
| 20260904224256 | 94 | 136 | 0.0 | 2.0 | 0.00 | 0.00 | 0.00 | 25 | 1016.0 |
| 20260904223641 | 95 | 183 | 0.0 | 0.0 | 0.00 | 0.00 | 0.00 | 25 | 1015.6 |
| 20260904223029 | 94 | 203 | 0.0 | 0.0 | 0.00 | 0.00 | 0.00 | 25 | 1016.0 |
| 20260904222719 | 94 | 152 | 0.0 | 1.0 | 0.00 | 0.00 | 0.00 | 25 | 1016.0 |
| 20260904221822 | 95 | 125 | 0.0 | 1.0 | 0.00 | 0.00 | 0.00 | 25 | 1016.3 |
| 20260904221403 | 94 | 146 | 0.0 | 0.0 | 0.00 | 0.00 | 0.00 | 25 | 1016.0 |
| 20260904220634 | 95 | 162 | 0.0 | 0.0 | 0.00 | 0.00 | 0.00 | 24 | 1016.0 |
| 20260904220000 | 95 | 181 | 0.0 | 8.0 | 0.00 | 0.00 | 0.00 | 24 | 1016.0 |
| 20260904215417 | 94 | 143 | 4.0 | 8.0 | 0.00 | 0.00 | 0.00 | 25 | 1016.0 |
| 20260904215138 | 94 | 134 | 0.0 | 0.0 | 0.00 | 0.00 | 0.00 | 25 | 1016.3 |
| 20260904214407 | 94 | 140 | 1.0 | 4.0 | 0.00 | 0.00 | 0.00 | 25 | 1016.0 |
| 20260904214235 | 93 | 118 | 0.0 | 7.0 | 0.00 | 0.00 | 0.00 | 26 | 1016.3 |
| 20260904213126 | 94 | 133 | 4.0 | 7.0 | 0.00 | 0.00 | 0.00 | 26 | 1016.3 |
| 20260904212450 | 94 | 170 | 0.0 | 8.0 | 0.00 | 0.00 | 0.00 | 26 | 1016.3 |
| 20260904212055 | 94 | 117 | 3.0 | 8.0 | 0.00 | 0.00 | 0.00 | 26 | 1016.3 |
| 20260904211316 | 94 | 151 | 1.0 | 8.0 | 0.00 | 0.00 | 0.00 | 26 | 1016.7 |
| 20260904210921 | 95 | 138 | 0.0 | 11.0 | 0.00 | 0.00 | 0.00 | 25 | 1016.3 |
| 20260904210414 | 97 | 125 | 1.0 | 3.0 | 0.00 | 0.00 | 0.00 | 24 | 1016.7 |
| 20260904205526 | 98 | 141 | 0.0 | 9.0 | 0.00 | 0.00 | 0.00 | 23 | 1016.3 |
| 20260904204850 | 97 | 111 | 3.0 | 7.0 | 0.00 | 0.00 | 0.00 | 23 | 1016.7 |
| 20260904204005 | 96 | 136 | 3.0 | 4.0 | 0.00 | 0.00 | 0.00 | 25 | 1016.7 |
| 20260904203339 | 95 | 196 | 0.0 | 3.0 | 0.00 | 0.00 | 0.00 | 25 | 1017.0 |
| 20260904202828 | 95 | 226 | 0.0 | 3.0 | 0.00 | 0.00 | 0.00 | 25 | 1017.0 |
| 20260904202232 | 97 | 137 | 0.0 | 1.0 | 0.00 | 0.00 | 0.00 | 24 | 1016.7 |
| 20260904201659 | 99 | 184 | 0.0 | 11.0 | 0.00 | 0.00 | 0.00 | 22 | 1017.0 |
| 20260904200826 | 100 | 177 | 0.0 | 11.0 | 0.00 | 0.00 | 0.00 | 23 | 1017.0 |
| 20260904200325 | 99 | 210 | 4.0 | 7.0 | 0.00 | 0.00 | 0.00 | 23 | 1017.0 |
| 20260904195918 | 97 | 210 | 0.0 | 3.0 | 0.00 | 0.00 | 0.00 | 23 | 1017.3 |
| 20260904195306 | 95 | 188 | 0.0 | 10.0 | 0.00 | 0.00 | 0.00 | 25 | 1017.3 |
| 20260904194508 | 98 | 125 | 6.0 | 8.0 | 0.00 | 0.00 | 0.00 | 24 | 1017.0 |
| 20260904193902 | 97 | 172 | 0.0 | 1.0 | 0.00 | 0.00 | 0.00 | 24 | 1017.3 |
| 20260904193532 | 99 | 187 | 0.0 | 1.0 | 0.00 | 0.00 | 0.00 | 24 | 1017.3 |
| 20260904193031 | 96 | 194 | 0.0 | 8.0 | 0.00 | 0.00 | 0.00 | 25 | 1017.3 |
| 20260904192312 | 96 | 57 | 0.0 | 7.0 | 0.00 | 0.00 | 0.00 | 25 | 1017.7 |
| 20260904191658 | 96 | 137 | 3.0 | 10.0 | 0.00 | 0.00 | 0.00 | 26 | 1017.3 |
| 20260904191331 | 96 | 150 | 6.0 | 10.0 | 0.00 | 0.00 | 0.00 | 25 | 1017.7 |
| 20260904191040 | 98 | 191 | 0.0 | 0.0 | 0.00 | 0.00 | 0.00 | 24 | 1017.7 |
| 20260904190002 | 96 | 178 | 0.0 | 2.0 | 0.00 | 0.00 | 0.00 | 25 | 1017.7 |
| 20260904185902 | 96 | 142 | 1.0 | 2.0 | 0.00 | 0.00 | 0.00 | 25 | 1017.7 |
| 20260904184807 | 96 | 118 | 0.0 | 2.0 | 0.00 | 0.00 | 0.00 | 25 | 1018.0 |
| 20260904184520 | 96 | 140 | 0.0 | 3.0 | 0.00 | 0.00 | 0.00 | 27 | 1018.0 |
| 20260904183513 | 95 | 147 | 0.0 | 4.0 | 0.00 | 0.00 | 0.00 | 27 | 1018.0 |
| 20260904182859 | 95 | 155 | 0.0 | 2.0 | 0.00 | 0.00 | 0.00 | 26 | 1018.3 |
| 20260904182234 | 96 | 195 | 0.0 | 2.0 | 0.00 | 0.00 | 0.00 | 25 | 1018.3 |
| 20260904181553 | 97 | 159 | 0.0 | 1.0 | 0.00 | 0.00 | 0.00 | 26 | 1018.3 |
| 20260904180953 | 95 | 235 | 0.0 | 1.0 | 0.00 | 0.00 | 0.00 | 27 | 1018.3 |
| 20260904180338 | 95 | 189 | 0.0 | 1.0 | 0.00 | 0.00 | 0.00 | 25 | 1018.3 |
| 20260904180256 | 95 | 143 | 0.0 | 2.0 | 0.00 | 0.00 | 0.00 | 26 | 1018.7 |
| 20260904175159 | 95 | 239 | 1.0 | 4.0 | 0.00 | 0.00 | 0.00 | 27 | 1018.3 |
| 20260904174540 | 95 | 175 | 0.0 | 3.0 | 0.00 | 0.00 | 0.00 | 27 | 1018.7 |
| 20260904173900 | 95 | 180 | 1.0 | 3.0 | 0.00 | 0.00 | 0.00 | 27 | 1018.7 |
| 20260904173259 | 94 | 175 | 0.0 | 0.0 | 0.00 | 0.00 | 0.00 | 26 | 1018.7 |
| 20260904172624 | 92 | 311 | 0.0 | 0.0 | 0.00 | 0.00 | 0.00 | 28 | 1019.0 |
| 20260904171942 | 91 | 326 | 0.0 | 0.0 | 0.00 | 0.00 | 0.00 | 30 | 1018.7 |
| 20260904171310 | 91 | 316 | 0.0 | 0.0 | 0.00 | 0.00 | 0.00 | 30 | 1019.0 |
| 20260904170808 | 92 | 185 | 0.0 | 0.0 | 0.00 | 0.00 | 0.00 | 29 | 1018.7 |
| 20260904170158 | 93 | 226 | 0.0 | 0.0 | 0.00 | 0.00 | 0.00 | 29 | 1019.0 |
| 20260904165510 | 94 | 187 | 0.0 | 3.0 | 0.00 | 0.00 | 0.00 | 28 | 1018.7 |
| 20260904165001 | 94 | 207 | 0.0 | 3.0 | 0.00 | 0.00 | 0.00 | 29 | 1019.0 |
| 20260904164412 | 93 | 172 | 1.0 | 3.0 | 0.00 | 0.00 | 0.00 | 28 | 1018.7 |
| 20260904163859 | 92 | 183 | 0.0 | 7.0 | 0.00 | 0.00 | 0.00 | 29 | 1019.0 |
| 20260904163301 | 90 | 196 | 4.0 | 7.0 | 0.00 | 0.00 | 0.00 | 32 | 1018.7 |
| 20260904162845 | 90 | 218 | 3.0 | 8.0 | 0.00 | 0.00 | 0.00 | 31 | 1019.0 |
| 20260904162016 | 91 | 188 | 4.0 | 6.0 | 0.00 | 0.00 | 0.00 | 31 | 1019.0 |
| 20260904161409 | 91 | 203 | 0.0 | 0.0 | 0.00 | 0.00 | 0.00 | 31 | 1019.0 |
| 20260904160758 | 90 | 178 | 0.0 | 0.0 | 0.00 | 0.00 | 0.00 | 32 | 1019.0 |
| 20260904160133 | 89 | 187 | 0.0 | 1.0 | 0.00 | 0.00 | 0.00 | 33 | 1018.7 |
| 20260904155746 | 88 | 187 | 0.0 | 6.0 | 0.00 | 0.00 | 0.00 | 35 | 1018.7 |
| 20260904154838 | 88 | 174 | 0.0 | 7.0 | 0.00 | 0.00 | 0.00 | 35 | 1018.7 |
| 20260904154217 | 86 | 198 | 4.0 | 7.0 | 0.00 | 0.00 | 0.00 | 36 | 1018.3 |
| 20260904153616 | 87 | 179 | 6.0 | 7.0 | 0.00 | 0.00 | 0.00 | 35 | 1018.7 |
| 20260904153019 | 87 | 179 | 3.0 | 4.0 | 0.00 | 0.00 | 0.00 | 35 | 1018.3 |
| 20260904152734 | 85 | 190 | 2.0 | 5.0 | 0.00 | 0.00 | 0.00 | 37 | 1018.7 |
| 20260904151847 | 85 | 199 | 2.0 | 5.0 | 0.00 | 0.00 | 0.00 | 37 | 1018.7 |
| 20260904151243 | 85 | 192 | 2.0 | 4.0 | 0.00 | 0.00 | 0.00 | 38 | 1018.3 |
| 20260904150635 | 84 | 186 | 0.0 | 0.0 | 0.00 | 0.00 | 0.00 | 40 | 1018.3 |
| 20260904145955 | 84 | 192 | 0.0 | 0.0 | 0.00 | 0.00 | 0.00 | 40 | 1018.7 |
| 20260904145410 | 83 | 169 | 0.0 | 0.0 | 0.00 | 0.00 | 0.00 | 41 | 1018.3 |
| 20260904144746 | 82 | 196 | 0.0 | 0.0 | 0.00 | 0.00 | 0.00 | 42 | 1018.7 |
| 20260904144205 | 82 | 194 | 0.0 | 2.0 | 0.00 | 0.00 | 0.00 | 44 | 1018.3 |
| 20260904143518 | 81 | 141 | 0.0 | 3.0 | 0.00 | 0.00 | 0.00 | 46 | 1018.7 |
| 20260904142912 | 80 | 146 | 0.0 | 3.0 | 0.00 | 0.00 | 0.00 | 47 | 1018.7 |
| 20260904142542 | 79 | 138 | 1.0 | 3.0 | 0.00 | 0.00 | 0.00 | 47 | 1019.0 |
| 20260904141600 | 79 | 137 | 0.0 | 0.0 | 0.00 | 0.00 | 0.00 | 48 | 1018.3 |
| 20260904141016 | 79 | 150 | 0.0 | 0.0 | 0.00 | 0.00 | 0.00 | 47 | 1018.3 |
| 20260904140505 | 78 | 172 | 0.0 | 0.0 | 0.00 | 0.00 | 0.00 | 49 | 1018.3 |
| 20260904135921 | 78 | 177 | 0.0 | 0.0 | 0.00 | 0.00 | 0.00 | 49 | 1018.3 |
| 20260904135356 | 76 | 178 | 0.0 | 0.0 | 0.00 | 0.00 | 0.00 | 52 | 1018.3 |
| 20260904134748 | 74 | 178 | 0.0 | 0.0 | 0.00 | 0.00 | 0.00 | 56 | 1018.3 |
| 20260904134105 | 73 | 178 | 0.0 | 0.0 | 0.00 | 0.00 | 0.00 | 57 | 1018.0 |
| 20260904133940 | 73 | 178 | 0.0 | 0.0 | 0.00 | 0.00 | 0.00 | 57 | 1018.3 |
| 20260904132912 | 74 | 178 | 0.0 | 0.0 | 0.00 | 0.00 | 0.00 | 56 | 1018.0 |
| 20260904132538 | 73 | 178 | 0.0 | 0.0 | 0.00 | 0.00 | 0.00 | 58 | 1018.0 |
| 20260904131804 | 72 | 178 | 0.0 | 0.0 | 0.00 | 0.00 | 0.00 | 59 | 1018.0 |
| 20260904131210 | 71 | 178 | 0.0 | 0.0 | 0.00 | 0.00 | 0.00 | 60 | 1018.0 |
| 20260904130430 | 71 | 178 | 0.0 | 0.0 | 0.00 | 0.00 | 0.00 | 60 | 1018.0 |
| 20260904125800 | 69 | 178 | 0.0 | 0.0 | 0.00 | 0.00 | 0.00 | 62 | 1017.7 |
| 20260904125116 | 69 | 178 | 0.0 | 0.0 | 0.00 | 0.00 | 0.00 | 64 | 1017.7 |
| 20260904124453 | 69 | 179 | 0.0 | 0.0 | 0.00 | 0.00 | 0.00 | 64 | 1017.3 |